This is the latest recevied weather packets stored in our database for station/object 9D9-WX. If no packets are shown the sender has not sent any weather packets the latest 10 day(s).
| Time | Temp. | Humidity | Pressure | Rain* | Wind** | Luminosity | Snow |
|---|---|---|---|---|---|---|---|
| 1777655709 | 7.22° C | 55% | 987.3 hPa | 0 mm | - | - | - |
| 1777654830 | 7.22° C | 55% | 987.3 hPa | 0 mm | - | - | - |
| 1777653908 | 7.22° C | 58% | 986 hPa | 0 mm | - | - | - |
| 1777653027 | 7.22° C | 59% | 986.3 hPa | 0 mm | - | - | - |
| 1777652109 | 7.22° C | 59% | 986.3 hPa | 0 mm | - | - | - |
| 1777651233 | 6.67° C | 59% | 986.3 hPa | 0 mm | - | - | - |
| 1777650309 | 6.67° C | 62% | 986.3 hPa | 0 mm | - | - | - |
| 1777649422 | 6.67° C | 55% | 986.9 hPa | 0 mm | - | - | - |
| 1777648509 | 6.67° C | 55% | 986.9 hPa | 0 mm | - | - | - |
| 1777647631 | 6.67° C | 55% | 986.9 hPa | 0 mm | - | - | - |
| 1777646709 | 6.67° C | 62% | 986.1 hPa | 0 mm | - | - | - |
| 1777645826 | 6.67° C | 59% | 986.8 hPa | 0 mm | - | - | - |
| 1777644909 | 6.11° C | 59% | 986.8 hPa | 0 mm | - | - | - |
| 1777644032 | 6.11° C | 59% | 986.8 hPa | 0 mm | - | - | - |
| 1777643109 | 5.56° C | 63% | 986.1 hPa | 0 mm | - | - | - |
| 1777642223 | 5.56° C | 63% | 986.1 hPa | 0 mm | - | - | - |
| 1777641309 | 5° C | 63% | 986.1 hPa | 0 mm | - | - | - |
| 1777640431 | 4.44° C | 63% | 986.1 hPa | 0 mm | - | - | - |
| 1777639509 | 4.44° C | 71% | 985.8 hPa | 0 mm | - | - | - |
| 1777638626 | 4.44° C | 70% | 985.8 hPa | 0 mm | - | - | - |
| 1777637709 | 3.89° C | 70% | 985.8 hPa | 0 mm | - | - | - |
| 1777636832 | 3.89° C | 70% | 985.8 hPa | 0 mm | - | - | - |
| 1777635909 | 3.89° C | 88% | 985.1 hPa | 0 mm | - | - | - |
| 1777635023 | 3.89° C | 89% | 985.2 hPa | 0 mm | - | - | - |
| 1777634109 | 2.78° C | 89% | 985.1 hPa | 0 mm | - | - | - |
* Rain latest hour (hover to see other rain measurements)
** Current wind speed in m/s (hover to see current wind gust speed)